Window Rock, AZ

11:27 AM MDT on March 27, 2017 (GMT -0600)
Window Rock

Weather History for KRQE - January, 2013

Change the Weather History Date:

Wednesday, January 9, 2013

  Actual Average Record
Temperature  
Mean Temperature 24 °F -  
Max Temperature 46 °F 41 °F 65 °F (1990)
Min Temperature 3 °F 12 °F -10 °F (1967)
Degree Days  
Heating Degree Days 40    
Moisture  
Dew Point 10 °F    
Average Humidity 67    
Maximum Humidity 88    
Minimum Humidity 25    
Precipitation  
Precipitation 0.00 in - - ()
Sea Level Pressure  
Sea Level Pressure 30.35 in    
Wind  
Wind Speed 2 mph (ESE)    
Max Wind Speed 10 mph    
Max Gust Speed -    
Visibility 10 miles    
Events      
Averages and records for this station are not official NWS values.
T = Trace of Precipitation, MM = Missing Value Source: NWS Daily Summary

Daily Weather History Graph

Daily Weather History Graph

Search for Another Location

Airport or City:

Trip Planner

Search our weather history database for the weather conditions in past years. The results will help you decide how hot, cold, wet, or windy it might be!

Date:

Astronomy

Jan. 09, 2013 Rise Set
Actual Time 7:26 AM MST 5:21 PM MST
Civil Twilight 6:58 AM MST 5:49 PM MST
Nautical Twilight 6:26 AM MST 6:20 PM MST
Astronomical Twilight 5:55 AM MST 6:51 PM MST
Moon 5:08 AM MST (1/9) 3:26 PM MST (1/9)
Length of Visible Light 10h 50m
Length of Day
9h 54m
Waning Crescent, 6% of the Moon is Illuminated
Jan 9
Waning Crescent
Jan 11
New
Jan 18
First Quarter
Jan 26
Full
Feb 3
Last Quarter

Hourly Weather History & Observations

Time (MST) Temp. Windchill Dew Point Humidity Pressure Visibility Wind Dir Wind Speed Gust Speed Precip Events Conditions
12:53 AM 10.0 °F 3.6 °F 7.0 °F 87% 30.32 in 10.0 mi Variable 3.5 mph - N/A   Clear
1:53 AM 9.0 °F - 5.0 °F 84% 30.32 in 10.0 mi Calm Calm - N/A   Clear
2:53 AM 9.0 °F - 5.0 °F 84% 30.32 in 10.0 mi Calm Calm - N/A   Clear
3:53 AM 7.0 °F - 3.0 °F 84% 30.32 in 10.0 mi Calm Calm - N/A   Clear
4:53 AM 3.9 °F - 1.0 °F 88% 30.37 in 10.0 mi Calm Calm - N/A   Clear
5:53 AM 6.1 °F - 1.9 °F 83% 30.42 in 10.0 mi Calm Calm - N/A   Clear
6:53 AM 3.9 °F -3.4 °F -0.9 °F 80% 30.47 in 8.0 mi North 3.5 mph - N/A   Clear
7:53 AM 3.0 °F - -0.0 °F 87% 30.54 in 10.0 mi Calm Calm - N/A   Clear
8:53 AM 10.9 °F - 6.1 °F 81% 30.51 in 10.0 mi Calm Calm - N/A   Clear
9:53 AM 21.0 °F - 12.9 °F 71% 30.50 in 10.0 mi Calm Calm - N/A   Clear
10:53 AM 30.9 °F - 16.0 °F 54% 30.44 in 10.0 mi Calm Calm - N/A   Clear
11:53 AM 37.0 °F - 18.0 °F 46% 30.39 in 10.0 mi Calm Calm - N/A   Clear
12:53 PM 42.1 °F - 14.0 °F 32% 30.34 in 10.0 mi Calm Calm - N/A   Clear
1:53 PM 45.0 °F - 14.0 °F 29% 30.29 in 10.0 mi Calm Calm - N/A   Clear
2:53 PM 44.1 °F 40.1 °F 17.1 °F 34% 30.28 in 10.0 mi West 6.9 mph - N/A   Clear
3:53 PM 46.9 °F - 12.9 °F 25% 30.26 in 10.0 mi Calm Calm - N/A   Clear
4:53 PM 43.0 °F 38.8 °F 18.0 °F 37% 30.27 in 10.0 mi ESE 6.9 mph - N/A   Clear
5:53 PM 35.1 °F 27.4 °F 17.1 °F 48% 30.28 in 10.0 mi ESE 10.4 mph - N/A   Clear
6:53 PM 26.1 °F 21.9 °F 16.0 °F 66% 30.33 in 10.0 mi South 3.5 mph - N/A   Clear
7:53 PM 19.9 °F - 14.0 °F 78% 30.35 in 10.0 mi Calm Calm - N/A   Clear
8:53 PM 21.9 °F 17.2 °F 15.1 °F 75% 30.30 in 10.0 mi East 3.5 mph - N/A   Clear
9:53 PM 14.0 °F - 10.9 °F 88% 30.28 in 10.0 mi Calm Calm - N/A   Clear
10:53 PM 12.0 °F - 9.0 °F 88% 30.23 in 10.0 mi Calm Calm - N/A   Clear
11:53 PM 12.0 °F - 9.0 °F 88% 30.17 in 10.0 mi Calm Calm - N/A   Clear